EST,Max TemperatureF,Mean TemperatureF,Min TemperatureF,Max Dew PointF,MeanDew PointF,Min DewpointF,Max Humidity, Mean Humidity, Min Humidity, Max Sea Level PressureIn, Mean Sea Level PressureIn, Min Sea Level PressureIn, Max VisibilityMiles, Mean VisibilityMiles, Min VisibilityMiles, Max Wind SpeedMPH, Mean Wind SpeedMPH, Max Gust SpeedMPH,PrecipitationIn, CloudCover, Events, WindDirDegrees
2011-11-1,61,44,27,38,31,26,100,66,32,30.36,30.29,30.23,10,8,1,6,1,8,0.00,0,,158
2011-11-2,67,49,30,37,33,28,92,60,28,30.41,30.29,30.20,10,10,9,5,0,8,0.00,1,,-1
2011-11-3,67,49,31,49,37,28,100,63,26,30.19,30.00,29.81,10,8,3,13,2,15,0.53,5,Rain,40
2011-11-4,59,48,37,48,45,36,100,79,57,30.17,29.95,29.77,10,7,2,16,6,22,1.10,6,Rain,270
2011-11-5,63,48,33,37,32,21,100,64,27,30.32,30.25,30.16,10,6,0,8,2,22,0.00,1,Fog,85
2011-11-6,65,47,29,39,32,23,92,65,37,30.43,30.35,30.29,10,10,10,6,0,8,0.00,0,,75
2011-11-7,68,50,31,44,39,32,100,71,42,30.43,30.34,30.26,10,9,6,5,1,8,0.00,0,,89
2011-11-8,68,50,32,44,39,33,100,69,37,30.30,30.22,30.13,10,8,0,9,1,13,0.00,2,Fog,13
2011-11-9,69,52,34,55,47,33,100,72,44,30.12,30.03,29.94,10,9,3,9,2,13,0.08,5,Rain,236
2011-11-10,57,47,37,54,36,17,89,64,38,30.08,30.00,29.93,10,10,6,21,9,26,T,6,Rain,283
2011-11-11,47,38,28,23,21,19,72,55,37,30.18,30.12,30.04,10,10,10,16,7,22,0.00,1,,235
2011-11-12,61,43,24,34,28,21,88,59,29,30.28,30.20,30.14,10,10,10,20,2,24,0.00,2,,244
2011-11-13,64,48,31,39,35,30,89,62,34,30.17,30.08,29.99,10,10,10,10,1,12,0.00,5,,252
2011-11-14,71,58,45,54,50,42,86,70,53,30.05,29.98,29.89,10,10,10,22,3,30,0.00,7,,237
2011-11-15,66,62,57,61,58,55,100,89,78,29.99,29.93,29.86,10,5,0,15,2,20,0.37,8,Fog-Rain,178
2011-11-16,68,59,50,61,56,44,100,89,77,29.90,29.83,29.69,10,4,0,29,4,38,1.27,8,Fog-Rain,336
2011-11-17,50,39,27,45,31,15,92,66,40,30.35,30.12,29.90,10,8,2,17,7,22,0.07,6,Rain-Snow,324
2011-11-18,52,37,21,25,21,16,88,58,28,30.48,30.37,30.30,10,10,10,9,1,13,0.00,1,,72
2011-11-19,65,45,24,43,32,20,85,63,40,30.40,30.29,30.20,10,10,10,10,2,14,0.00,3,,149
2011-11-20,69,57,45,55,49,41,93,73,53,30.28,30.22,30.18,10,10,9,10,2,13,0.01,7,Rain,305
2011-11-21,64,59,53,61,56,52,100,95,90,30.27,30.20,30.15,10,5,0,14,4,16,0.18,8,Fog-Rain,216
2011-11-22,71,61,51,61,55,51,100,79,57,30.17,30.02,29.83,10,5,0,15,3,20,0.53,7,Fog-Rain,225
2011-11-23,59,48,37,56,46,35,93,74,54,30.27,29.99,29.78,10,10,4,22,9,30,0.08,6,Rain,275
2011-11-24,59,45,30,40,34,30,100,70,39,30.42,30.35,30.28,10,6,0,6,1,8,0.00,1,Fog,309
2011-11-25,64,46,27,37,32,26,100,65,30,30.38,30.31,30.23,10,10,8,6,0,7,0.00,0,,180
2011-11-26,65,47,28,44,36,27,92,66,39,30.35,30.22,30.10,10,10,10,10,1,15,0.00,3,,138
2011-11-27,69,59,49,51,46,43,80,60,39,30.07,29.96,29.85,10,10,10,24,8,31,0.00,6,,163
2011-11-28,67,59,50,55,51,48,93,75,56,29.85,29.73,29.61,10,9,4,21,11,30,0.27,7,Rain,146
2011-11-29,51,44,36,48,36,32,96,83,70,29.85,29.75,29.65,10,10,10,18,9,25,0.11,8,Rain,248
2011-11-30,41,34,26,34,31,25,92,78,64,30.22,30.02,29.84,10,10,7,18,8,24,T,6,Rain,258